DELTA 1 DEB, 21329

Orbit data source: Space-Track

DELTA 1 DEB, 21329 is space debris in SSO originally from a launch on Thu, 12 Jun 1975 UTC launched from the Air Force Western Test Range (AFWTR). Debris objects in space refer to the collection of defunct objects orbiting the Earth. Examples of debris include non-operational satellites, rocket bodies, and fragments generated from explosions, collisions, or faulty payload assembly.

Loading next visibility...
Identifier
21329, 1975-052AX
Orbit
SSO
Country
Flag of USUS
Related business
Manufacturer
Unknown
Mission
Spacecraft
Bus & Motor
Unknown
Mass
Unknown
Launch date (UTC)
1975-06-12 (51 years ago)
Launch vehicle
Unknown
Launch site
Air Force Western Test Range (AFWTR)
Object type
Payload
Rocket body
Debris
Shape & HBR
Unknown shape, 0.2 m
Radar Cross Section
Medium (>0.1 m² and <1 m²)

Expand to show TLE details & history
Last TLE update: 2 days ago

TLE from 2 days ago
0 DELTA 1 DEB
1 21329U 75052AX  26171.11218343  .00011841  00000-0  24357-2 0  9994
2 21329  99.6678 222.2851 0102412 359.3876  28.2516 14.57468911769010
Epoch: 2026-06-20T02:41Z
TLE epoch observation values (Epoch: 2026-06-20T02:41:32.648Z)
Latitude
27.81005°
Longitude
-91.55969°
Altitude
641.065 km
Speed
7.574 km/s
True Right ascension
14h 28m 37s
True Declination
27° 39' 58"
Sunlit
Object was in daylight at epoch
Visualization orbit readout
Latitude
Unknown
Longitude
Unknown
Altitude
Unknown
Speed
Unknown
Apparent Right ascension
Unknown
Apparent Declination
Unknown
Sunlit
N/A
Visualization observer readout
Local Sidereal Time
09:15:53
Azimuth
Unknown
Elevation
Unknown
Doppler factor
Unknown
Orbital elements
Apogee altitude
770.989 km
Perigee altitude
626.042 km
Semi-major axis
7,076.653 km
Eccentricity
0.01024
Inclination
99.6678°
RAAN
222.2851°
Arg. of periapsis
359.3876°
True anomaly
28.81342°
Mean anomaly
28.2516°
Eccentric anomaly
28.53187°
Mean motion
3.64587 °/min
Orbital period
98.74 mins
BSTAR
0.0024357
Loading maneuver chart data...
Computing Atmospheric mass density...
Loading historical data...
Loading historical data...
Loading historical data...
Loading historical data...
Loading historical data...
Loading historical data...
Loading historical data...

Documentation

Showing up to 5 results
|